Date String (YYYY-MM-DD hh:mm:ss) UTC,Instrument flags,Ambient pressure (hPa),Sample flow (lpm),Bypass flow (lpm),Sample temperature (°C),Ambient temperature (°C),ASC tube jacket temperature (°C),LED temperature (°C),Box temperature (°C),Sample RH (%),Span deviation,Mass concentration (μg/m³),Mass concentration (μg/m³),Mass concentration (μg/m³)
DateTimeUTC,F1_M11,P_M11,Q1_M11,Q2_M11,T1_M11,T2_M11,T3_M11,T4_M11,T5_M11,U1_M11,ZSPAN_M11,X2_M11,X0_M11,X1_M11
2022-06-30 10:00:00,,0827.8,5.00,0.00,29.6,27.6,00.0,38.4,31.3,20.4,0000.0,0001.84,0002.67,0001.51
2022-06-30 10:01:00,,0827.8,5.00,0.00,29.6,27.7,00.0,38.4,31.3,20.2,0000.0,0001.81,0002.64,0001.49
2022-06-30 10:02:00,,0827.9,5.00,0.00,29.6,27.8,00.0,38.4,31.3,20.2,0000.0,0001.83,0002.73,0001.46
2022-06-30 10:03:00,,0827.8,5.00,0.00,29.5,27.9,00.0,38.4,31.4,20.2,0000.0,0001.83,0002.74,0001.44
2022-06-30 10:04:00,,0827.9,5.01,0.00,29.5,28.0,00.0,38.4,31.4,22.1,0000.0,0001.80,0002.81,0001.42
2022-06-30 10:05:00,,0827.9,5.00,0.00,29.6,28.1,00.0,38.4,31.4,26.3,0000.0,0001.83,0002.86,0001.45
2022-06-30 10:06:00,,0827.9,5.00,0.00,29.6,28.2,00.0,38.4,31.4,25.6,0000.0,0001.91,0002.95,0001.52
2022-06-30 10:07:00,,0827.8,5.00,0.00,29.6,28.3,00.0,38.4,31.5,24.1,0000.0,0001.96,0002.95,0001.59
2022-06-30 10:08:00,,0827.8,5.00,0.00,29.6,28.4,00.0,38.4,31.5,23.4,0000.0,0002.08,0003.20,0001.64
2022-06-30 10:09:00,,0827.8,5.00,0.00,29.6,28.5,00.0,38.4,31.5,22.0,0000.0,0002.16,0003.45,0001.67
2022-06-30 10:10:00,,0827.8,5.00,0.00,29.6,28.5,00.0,38.4,31.5,22.5,0000.0,0002.17,0003.59,0001.69
2022-06-30 10:11:00,,0827.8,5.00,0.00,29.6,28.6,00.0,38.4,31.5,23.3,0000.0,0002.18,0003.61,0001.71
2022-06-30 10:12:00,,0827.7,4.99,0.00,29.7,28.6,00.0,38.4,31.6,22.6,0000.0,0002.24,0003.79,0001.74
2022-06-30 10:13:00,,0827.7,5.01,0.00,29.7,28.7,00.0,38.4,31.6,22.2,0000.0,0002.29,0004.38,0001.76
2022-06-30 10:14:00,,0827.7,5.01,0.00,29.7,28.7,00.0,38.5,31.6,22.1,0000.0,0002.29,0005.09,0001.79
2022-06-30 10:15:00,,0827.7,5.00,0.00,29.7,28.8,00.0,38.5,31.7,22.4,0000.0,0002.33,0005.39,0001.83
2022-06-30 10:16:00,,0827.8,5.00,0.00,29.7,28.8,00.0,38.5,31.7,23.0,0000.0,0002.36,0005.62,0001.82
2022-06-30 10:17:00,,0827.8,5.00,0.00,29.8,28.8,00.0,38.5,31.7,23.2,0000.0,0002.39,0006.07,0001.80
2022-06-30 10:18:00,,0827.8,5.00,0.00,29.8,28.9,00.0,38.5,31.7,23.3,0000.0,0002.38,0006.05,0001.79
2022-06-30 10:19:00,,0827.8,5.00,0.00,29.8,28.9,00.0,38.5,31.7,23.1,0000.0,0002.32,0005.81,0001.80
2022-06-30 10:20:00,,0827.8,5.00,0.00,29.8,28.9,00.0,38.6,31.8,22.8,0000.0,0002.31,0005.68,0001.81
2022-06-30 10:21:00,,0827.8,4.99,0.00,29.8,28.9,00.0,38.6,31.7,22.8,0000.0,0002.32,0005.57,0001.83
2022-06-30 10:22:00,,0827.8,5.01,0.00,29.9,28.7,00.0,38.6,31.7,22.6,0000.0,0002.34,0005.58,0001.84
2022-06-30 10:23:00,,0827.9,5.01,0.00,29.8,27.8,00.0,38.5,31.5,22.4,0000.0,0002.34,0005.43,0001.86
2022-06-30 10:24:00,,0827.9,5.01,0.00,29.7,27.4,00.0,38.5,31.3,22.2,0000.0,0002.32,0004.83,0001.88
2022-06-30 10:25:00,,0827.8,4.99,0.00,29.6,27.4,00.0,38.5,31.3,22.6,0000.0,0002.33,0004.08,0001.89
2022-06-30 10:26:00,,0827.9,5.00,0.00,29.6,27.5,00.0,38.4,31.3,22.4,0000.0,0002.35,0004.67,0001.89
2022-06-30 10:27:00,,0827.8,5.01,0.00,29.6,27.6,00.0,38.4,31.3,22.2,0000.0,0002.31,0004.44,0001.87
2022-06-30 10:28:00,,0827.9,5.00,0.00,29.6,27.7,00.0,38.4,31.3,22.0,0000.0,0002.22,0003.92,0001.84
2022-06-30 10:29:00,,0827.9,4.98,0.00,29.5,27.9,00.0,38.4,31.3,21.9,0000.0,0002.23,0003.95,0001.82
2022-06-30 10:30:00,,0827.9,5.01,0.00,29.5,28.0,00.0,38.4,31.4,21.8,0000.0,0002.21,0003.95,0001.80
2022-06-30 10:31:00,,0827.9,5.00,0.00,29.5,28.1,00.0,38.4,31.4,21.9,0000.0,0002.28,0004.28,0001.78
2022-06-30 10:32:00,,0827.9,5.01,0.00,29.6,28.2,00.0,38.4,31.4,22.3,0000.0,0002.31,0004.46,0001.75
2022-06-30 10:33:00,,0827.8,5.01,0.00,29.6,28.3,00.0,38.4,31.4,21.9,0000.0,0002.28,0004.50,0001.74
2022-06-30 10:34:00,,0827.8,5.01,0.00,29.6,28.4,00.0,38.4,31.5,21.5,0000.0,0002.25,0004.51,0001.70
2022-06-30 10:35:00,,0827.8,4.99,0.00,29.6,28.5,00.0,38.4,31.5,23.0,0000.0,0002.26,0004.59,0001.68
2022-06-30 10:36:00,,0827.8,5.00,0.00,29.6,28.5,00.0,38.4,31.5,23.8,0000.0,0002.27,0004.63,0001.69
2022-06-30 10:37:00,,0827.9,5.01,0.00,29.6,28.6,00.0,38.4,31.5,24.3,0000.0,0002.30,0003.83,0001.71
2022-06-30 10:38:00,,0827.9,5.02,0.00,29.7,28.7,00.0,38.4,31.6,24.3,0000.0,0002.33,0003.86,0001.74
2022-06-30 10:39:00,,0827.9,5.00,0.00,29.7,28.7,00.0,38.4,31.6,25.4,0000.0,0002.41,0004.05,0001.78
2022-06-30 10:40:00,,0827.9,4.99,0.00,29.7,28.8,00.0,38.5,31.6,24.7,0000.0,0002.51,0004.30,0001.83
2022-06-30 10:41:00,,0827.9,5.00,0.00,29.7,28.8,00.0,38.5,31.7,23.2,0000.0,0002.53,0004.33,0001.85
2022-06-30 10:42:00,,0827.9,5.00,0.00,29.8,28.8,00.0,38.5,31.7,22.6,0000.0,0002.47,0005.36,0001.87
2022-06-30 10:43:00,,0827.7,5.00,0.00,29.8,28.9,00.0,38.5,31.7,22.7,0000.0,0002.47,0005.28,0001.90
2022-06-30 10:44:00,,0827.8,4.99,0.00,29.8,28.9,00.0,38.5,31.7,22.8,0000.0,0002.50,0005.25,0001.92
2022-06-30 10:45:00,,0827.8,4.99,0.00,29.8,28.9,00.0,38.5,31.8,22.3,0000.0,0002.55,0005.34,0001.94
2022-06-30 10:46:00,,0827.8,5.01,0.00,29.8,29.0,00.0,38.6,31.7,22.1,0000.0,0002.58,0005.33,0001.96
2022-06-30 10:47:00,,0827.8,5.00,0.00,29.9,28.9,00.0,38.6,31.7,21.9,0000.0,0002.60,0005.40,0001.95
2022-06-30 10:48:00,,0827.8,5.00,0.00,29.8,28.3,00.0,38.5,31.6,21.3,0000.0,0002.57,0005.33,0001.93
2022-06-30 10:49:00,,0827.7,5.00,0.00,29.8,27.6,00.0,38.5,31.4,21.3,0000.0,0002.52,0005.26,0001.90
2022-06-30 10:50:00,,0827.7,5.01,0.00,29.7,27.5,00.0,38.5,31.4,21.4,0000.0,0002.47,0005.22,0001.86
2022-06-30 10:51:00,,0827.7,4.99,0.00,29.6,27.5,00.0,38.5,31.3,21.4,0000.0,0002.40,0005.05,0001.80
2022-06-30 10:52:00,,0827.7,4.99,0.00,29.6,27.6,00.0,38.4,31.3,21.2,0000.0,0002.36,0005.00,0001.79
2022-06-30 10:53:00,,0827.7,4.99,0.00,29.6,27.7,00.0,38.4,31.3,21.3,0000.0,0002.36,0003.92,0001.77
2022-06-30 10:54:00,,0827.7,4.98,0.00,29.6,27.8,00.0,38.4,31.3,21.2,0000.0,0002.34,0003.64,0001.76
2022-06-30 10:55:00,,0827.7,4.99,0.00,29.5,27.9,00.0,38.4,31.4,20.8,0000.0,0002.29,0003.66,0001.72
2022-06-30 10:56:00,,0827.7,5.01,0.00,29.6,28.1,00.0,38.4,31.4,21.0,0000.0,0002.26,0003.70,0001.70
2022-06-30 10:57:00,,0827.7,5.01,0.00,29.6,28.2,00.0,38.4,31.4,21.0,0000.0,0002.22,0003.75,0001.68
2022-06-30 10:58:00,,0827.7,4.99,0.00,29.6,28.3,00.0,38.4,31.4,20.8,0000.0,0002.16,0003.63,0001.65
2022-06-30 10:59:00,,0827.7,4.99,0.00,29.6,28.3,00.0,38.4,31.5,20.8,0000.0,0002.15,0003.74,0001.64
